| time (UTC) | temp F | wind direction | speed knots | gust knots | rain 1hr in | rain 24hr in | rain mn in | humidity % | barometer mb |
| 20260506044321 | 50 | 10 | 9.6 | 12.2 | 0.00 | 0.00 | 0.00 | 1 | 1009.0 |
| 20260506043817 | 51 | 13 | 10.4 | 12.2 | 0.00 | 0.00 | 0.00 | 1 | 1008.9 |
| 20260506043316 | 50 | 1 | 9.6 | 13.9 | 0.00 | 0.00 | 0.00 | 1 | 1008.9 |
| 20260506042816 | 50 | 10 | 7.8 | 13.9 | 0.00 | 0.00 | 0.00 | 1 | 1009.0 |
| 20260506042316 | 50 | 13 | 11.3 | 13.9 | 0.00 | 0.00 | 0.00 | 1 | 1008.9 |
| 20260506041316 | 50 | 44 | 7.8 | 15.6 | 0.00 | 0.00 | 0.00 | 1 | 1009.0 |
| 20260506040816 | 50 | 10 | 7.8 | 15.6 | 0.00 | 0.00 | 0.00 | 1 | 1009.0 |
| 20260506040316 | 51 | 10 | 9.6 | 15.6 | 0.00 | 0.00 | 0.00 | 1 | 1008.9 |
| 20260506035817 | 50 | 10 | 10.4 | 15.6 | 0.00 | 0.00 | 0.00 | 1 | 1009.0 |
| 20260506035317 | 51 | 14 | 12.2 | 16.5 | 0.00 | 0.00 | 0.00 | 1 | 1008.9 |
| 20260506034815 | 51 | 13 | 14.8 | 16.5 | 0.00 | 0.00 | 0.00 | 1 | 1008.8 |
| 20260506034316 | 51 | 24 | 13.0 | 15.6 | 0.00 | 0.00 | 0.00 | 1 | 1009.0 |
| 20260506033817 | 51 | 10 | 9.6 | 13.9 | 0.00 | 0.00 | 0.00 | 1 | 1009.0 |
| 20260506033322 | 51 | 17 | 8.7 | 13.9 | 0.00 | 0.00 | 0.00 | 1 | 1009.0 |
| 20260506032816 | 50 | 17 | 10.4 | 13.9 | 0.00 | 0.00 | 0.00 | 1 | 1009.1 |
| 20260506032316 | 50 | 10 | 9.6 | 14.8 | 0.00 | 0.00 | 0.00 | 1 | 1009.1 |
| 20260506031816 | 50 | 13 | 10.4 | 16.5 | 0.00 | 0.00 | 0.00 | 1 | 1009.2 |
| 20260506031316 | 51 | 10 | 12.2 | 17.4 | 0.00 | 0.00 | 0.00 | 1 | 1009.2 |
| 20260506030816 | 51 | 14 | 13.0 | 17.4 | 0.00 | 0.00 | 0.00 | 1 | 1009.1 |
| 20260506030316 | 51 | 10 | 13.0 | 17.4 | 0.00 | 0.00 | 0.00 | 1 | 1009.2 |
| 20260506024817 | 50 | 10 | 11.3 | 15.6 | 0.00 | 0.00 | 0.00 | 1 | 1009.3 |
| 20260506023816 | 50 | 20 | 13.0 | 15.6 | 0.00 | 0.00 | 0.00 | 1 | 1009.3 |
| 20260506023317 | 50 | 10 | 12.2 | 14.8 | 0.00 | 0.00 | 0.00 | 1 | 1009.4 |
| 20260506022816 | 50 | 10 | 10.4 | 14.8 | 0.00 | 0.00 | 0.00 | 1 | 1009.3 |
| 20260506021816 | 50 | 10 | 11.3 | 13.0 | 0.00 | 0.00 | 0.00 | 1 | 1009.4 |
| 20260506021315 | 50 | 14 | 8.7 | 13.0 | 0.00 | 0.00 | 0.00 | 1 | 1009.5 |
| 20260506020316 | 50 | 26 | 9.6 | 12.2 | 0.00 | 0.00 | 0.00 | 1 | 1009.5 |
| 20260506015816 | 50 | 10 | 8.7 | 11.3 | 0.00 | 0.00 | 0.00 | 3 | 1009.5 |
| 20260506015317 | 50 | 10 | 7.0 | 10.4 | 0.00 | 0.00 | 0.00 | 3 | 1009.7 |
| 20260506014817 | 50 | 14 | 7.8 | 12.2 | 0.00 | 0.00 | 0.00 | 3 | 1009.5 |
| 20260506014317 | 50 | 10 | 10.4 | 12.2 | 0.00 | 0.00 | 0.00 | 3 | 1009.7 |
| 20260506013816 | 50 | 10 | 9.6 | 13.0 | 0.00 | 0.00 | 0.00 | 2 | 1009.7 |
| 20260506013316 | 50 | 14 | 9.6 | 13.0 | 0.00 | 0.00 | 0.00 | 3 | 1009.6 |
| 20260506012816 | 49 | 28 | 7.8 | 10.4 | 0.00 | 0.00 | 0.00 | 3 | 1009.6 |
| 20260506012317 | 49 | 18 | 7.0 | 9.6 | 0.00 | 0.00 | 0.00 | 4 | 1009.7 |
| 20260506011816 | 49 | 10 | 7.8 | 10.4 | 0.00 | 0.00 | 0.00 | 4 | 1009.6 |
| 20260506011316 | 49 | 17 | 7.8 | 10.4 | 0.00 | 0.00 | 0.00 | 4 | 1009.6 |
| 20260506010816 | 49 | 14 | 7.8 | 10.4 | 0.00 | 0.00 | 0.00 | 5 | 1009.8 |
| 20260506005816 | 49 | 16 | 7.0 | 10.4 | 0.00 | 0.00 | 0.00 | 5 | 1009.8 |
| 20260506005316 | 49 | 24 | 7.0 | 10.4 | 0.00 | 0.00 | 0.00 | 6 | 1009.9 |
| 20260506004816 | 49 | 10 | 6.1 | 10.4 | 0.00 | 0.00 | 0.00 | 6 | 1009.9 |
| 20260506004316 | 49 | 10 | 7.8 | 10.4 | 0.00 | 0.00 | 0.00 | 6 | 1009.9 |
| 20260506003816 | 49 | 10 | 7.0 | 10.4 | 0.00 | 0.00 | 0.00 | 6 | 1010.0 |
| 20260506003322 | 49 | 20 | 7.8 | 10.4 | 0.00 | 0.00 | 0.00 | 7 | 1010.0 |
| 20260506002816 | 49 | 10 | 7.0 | 10.4 | 0.00 | 0.00 | 0.00 | 7 | 1010.1 |
| 20260506002317 | 49 | 13 | 7.8 | 10.4 | 0.00 | 0.00 | 0.00 | 8 | 1010.2 |
| 20260506001816 | 49 | 10 | 7.8 | 11.3 | 0.00 | 0.00 | 0.00 | 9 | 1010.2 |
| 20260506001316 | 49 | 16 | 7.8 | 11.3 | 0.00 | 0.00 | 0.00 | 9 | 1010.3 |
| 20260506000816 | 49 | 13 | 8.7 | 11.3 | 0.00 | 0.00 | 0.00 | 10 | 1010.2 |
| 20260506000316 | 49 | 11 | 8.7 | 11.3 | 0.00 | 0.00 | 0.00 | 11 | 1010.2 |
| 20260505235816 | 49 | 10 | 7.8 | 11.3 | 0.00 | 0.00 | 0.00 | 11 | 1010.3 |
| 20260505234815 | 49 | 10 | 7.0 | 9.6 | 0.00 | 0.00 | 0.00 | 14 | 1010.5 |
| 20260505234316 | 49 | 27 | 7.0 | 9.6 | 0.00 | 0.00 | 0.00 | 14 | 1010.6 |
| 20260505233815 | 49 | 17 | 7.0 | 12.2 | 0.00 | 0.00 | 0.00 | 14 | 1010.5 |
| 20260505233317 | 49 | 353 | 8.7 | 12.2 | 0.00 | 0.00 | 0.00 | 14 | 1010.4 |
| 20260505232816 | 49 | 10 | 8.7 | 11.3 | 0.00 | 0.00 | 0.00 | 15 | 1010.5 |
| 20260505232316 | 49 | 10 | 7.0 | 10.4 | 0.00 | 0.00 | 0.00 | 16 | 1010.5 |
| 20260505231816 | 49 | 10 | 7.0 | 10.4 | 0.00 | 0.00 | 0.00 | 16 | 1010.7 |
| 20260505231309 | 49 | 10 | 7.0 | 11.3 | 0.00 | 0.00 | 0.00 | 16 | 1010.8 |
| 20260505230802 | 49 | 21 | 9.6 | 11.3 | 0.00 | 0.00 | 0.00 | 17 | 1010.7 |
| 20260505230255 | 49 | 24 | 7.0 | 11.3 | 0.00 | 0.00 | 0.00 | 17 | 1010.7 |
| 20260505225745 | 49 | 358 | 7.8 | 10.4 | 0.00 | 0.00 | 0.00 | 17 | 1010.8 |
| 20260505225240 | 49 | 10 | 6.1 | 9.6 | 0.00 | 0.00 | 0.00 | 18 | 1010.7 |
| 20260505223730 | 49 | 17 | 5.2 | 9.6 | 0.00 | 0.00 | 0.00 | 19 | 1010.8 |
| 20260505222729 | 49 | 28 | 6.1 | 9.6 | 0.00 | 0.00 | 0.00 | 20 | 1010.8 |
| 20260505221726 | 49 | 357 | 5.2 | 9.6 | 0.00 | 0.00 | 0.00 | 21 | 1010.8 |
| 20260505221221 | 49 | 14 | 5.2 | 10.4 | 0.00 | 0.00 | 0.00 | 21 | 1010.9 |
| 20260505220721 | 49 | 35 | 5.2 | 10.4 | 0.00 | 0.00 | 0.00 | 21 | 1011.0 |
| 20260505215716 | 49 | 33 | 7.0 | 10.4 | 0.00 | 0.00 | 0.00 | 22 | 1011.0 |
| 20260505215215 | 50 | 28 | 6.1 | 10.4 | 0.00 | 0.00 | 0.00 | 23 | 1011.0 |
| 20260505214702 | 50 | 20 | 7.0 | 9.6 | 0.00 | 0.00 | 0.00 | 24 | 1011.1 |
| 20260505214202 | 50 | 20 | 7.8 | 9.6 | 0.00 | 0.00 | 0.00 | 24 | 1011.2 |
| 20260505213701 | 50 | 11 | 6.1 | 9.6 | 0.00 | 0.00 | 0.00 | 24 | 1011.1 |
| 20260505212702 | 50 | 47 | 7.0 | 8.7 | 0.00 | 0.00 | 0.00 | 26 | 1011.2 |
| 20260505211655 | 50 | 24 | 4.3 | 11.3 | 0.00 | 0.00 | 0.00 | 28 | 1011.2 |
| 20260505211139 | 50 | 14 | 6.1 | 11.3 | 0.00 | 0.00 | 0.00 | 29 | 1011.2 |
| 20260505210640 | 50 | 11 | 6.1 | 12.2 | 0.00 | 0.00 | 0.00 | 30 | 1011.2 |
| 20260505210139 | 50 | 37 | 6.1 | 12.2 | 0.00 | 0.00 | 0.00 | 30 | 1011.2 |
| 20260505204629 | 50 | 17 | 7.0 | 10.4 | 0.00 | 0.00 | 0.00 | 32 | 1011.1 |
| 20260505204130 | 50 | 23 | 6.1 | 8.7 | 0.00 | 0.00 | 0.00 | 32 | 1011.2 |
| 20260505203629 | 50 | 10 | 5.2 | 9.6 | 0.00 | 0.00 | 0.00 | 33 | 1011.2 |
| 20260505203129 | 50 | 47 | 5.2 | 9.6 | 0.00 | 0.00 | 0.00 | 34 | 1011.2 |
| 20260505202630 | 51 | 21 | 5.2 | 11.3 | 0.00 | 0.00 | 0.00 | 35 | 1011.0 |
| 20260505202129 | 51 | 13 | 7.0 | 12.2 | 0.00 | 0.00 | 0.00 | 35 | 1011.0 |
| 20260505201618 | 51 | 10 | 7.8 | 12.2 | 0.00 | 0.00 | 0.00 | 36 | 1010.9 |
| 20260505201118 | 51 | 42 | 6.1 | 12.2 | 0.00 | 0.00 | 0.00 | 36 | 1011.1 |
| 20260505200616 | 51 | 18 | 7.8 | 12.2 | 0.00 | 0.00 | 0.00 | 36 | 1010.9 |
| 20260505200109 | 51 | 16 | 9.6 | 15.6 | 0.00 | 0.00 | 0.00 | 36 | 1010.9 |
| 20260505195606 | 51 | 27 | 8.7 | 15.6 | 0.00 | 0.00 | 0.00 | 37 | 1010.9 |
| 20260505195104 | 51 | 10 | 6.1 | 13.9 | 0.00 | 0.00 | 0.00 | 37 | 1011.0 |
| 20260505194602 | 51 | 10 | 7.8 | 13.9 | 0.00 | 0.00 | 0.00 | 39 | 1010.8 |
| 20260505194102 | 51 | 10 | 10.4 | 13.0 | 0.00 | 0.00 | 0.00 | 40 | 1010.8 |
| 20260505193102 | 51 | 14 | 6.1 | 12.2 | 0.00 | 0.00 | 0.00 | 43 | 1010.8 |
| 20260505192602 | 51 | 35 | 7.8 | 14.8 | 0.00 | 0.00 | 0.00 | 43 | 1010.8 |
| 20260505192102 | 51 | 5 | 11.3 | 14.8 | 0.00 | 0.00 | 0.00 | 44 | 1010.6 |
| 20260505191559 | 51 | 14 | 10.4 | 13.0 | 0.00 | 0.00 | 0.00 | 44 | 1010.6 |
| 20260505191050 | 51 | 10 | 7.8 | 13.0 | 0.00 | 0.00 | 0.00 | 43 | 1010.8 |
| 20260505190035 | 52 | 10 | 9.6 | 13.9 | 0.00 | 0.00 | 0.00 | 45 | 1010.5 |
| 20260505185531 | 52 | 10 | 7.0 | 14.8 | 0.00 | 0.00 | 0.00 | 47 | 1010.6 |
| 20260505185030 | 52 | 28 | 9.6 | 16.5 | 0.00 | 0.00 | 0.00 | 47 | 1010.6 |
| 20260505184530 | 52 | 16 | 11.3 | 16.5 | 0.00 | 0.00 | 0.00 | 48 | 1010.4 |
| 20260505184030 | 52 | 24 | 9.6 | 15.6 | 0.00 | 0.00 | 0.00 | 47 | 1010.6 |
| 20260505183530 | 53 | 10 | 11.3 | 15.6 | 0.00 | 0.00 | 0.00 | 47 | 1010.5 |
| 20260505183016 | 53 | 20 | 7.0 | 13.0 | 0.00 | 0.00 | 0.00 | 47 | 1010.5 |
| 20260505182522 | 53 | 49 | 8.7 | 13.0 | 0.00 | 0.00 | 0.00 | 48 | 1010.5 |
| 20260505182016 | 53 | 10 | 9.6 | 15.6 | 0.00 | 0.00 | 0.00 | 48 | 1010.4 |
| 20260505181515 | 53 | 48 | 8.7 | 15.6 | 0.00 | 0.00 | 0.00 | 48 | 1010.5 |
| 20260505181009 | 53 | 35 | 8.7 | 14.8 | 0.00 | 0.00 | 0.00 | 48 | 1010.4 |
| 20260505180502 | 53 | 11 | 10.4 | 14.8 | 0.00 | 0.00 | 0.00 | 49 | 1010.4 |
| 20260505180004 | 54 | 23 | 8.7 | 14.8 | 0.00 | 0.00 | 0.00 | 48 | 1010.6 |
| 20260505175502 | 54 | 10 | 10.4 | 14.8 | 0.00 | 0.00 | 0.00 | 49 | 1010.5 |
| 20260505175002 | 54 | 13 | 8.7 | 13.9 | 0.00 | 0.00 | 0.00 | 51 | 1010.5 |
| 20260505174002 | 54 | 17 | 9.6 | 13.0 | 0.00 | 0.00 | 0.00 | 51 | 1010.6 |
| 20260505173501 | 54 | 5 | 7.8 | 15.6 | 0.00 | 0.00 | 0.00 | 51 | 1010.5 |
| 20260505172932 | 55 | 20 | 9.6 | 15.6 | 0.00 | 0.00 | 0.00 | 52 | 1010.4 |
| 20260505172430 | 55 | 28 | 8.7 | 15.6 | 0.00 | 0.00 | 0.00 | 53 | 1010.5 |
| 20260505171929 | 55 | 14 | 10.4 | 14.8 | 0.00 | 0.00 | 0.00 | 54 | 1010.3 |
| 20260505170923 | 55 | 26 | 12.2 | 15.6 | 0.00 | 0.00 | 0.00 | 55 | 1010.3 |
| 20260505170417 | 56 | 23 | 9.6 | 16.5 | 0.00 | 0.00 | 0.00 | 55 | 1010.4 |
| 20260505165916 | 56 | 24 | 13.0 | 16.5 | 0.00 | 0.00 | 0.00 | 55 | 1010.3 |
| 20260505165416 | 56 | 23 | 8.7 | 16.5 | 0.00 | 0.00 | 0.00 | 55 | 1010.4 |
| 20260505164916 | 56 | 11 | 14.8 | 16.5 | 0.00 | 0.00 | 0.00 | 55 | 1010.2 |
| 20260505164415 | 56 | 10 | 8.7 | 14.8 | 0.00 | 0.00 | 0.00 | 55 | 1010.4 |
| 20260505163916 | 56 | 51 | 8.7 | 14.8 | 0.00 | 0.00 | 0.00 | 56 | 1010.4 |
| 20260505163415 | 56 | 21 | 7.8 | 13.0 | 0.00 | 0.00 | 0.00 | 55 | 1010.3 |
| 20260505162915 | 56 | 55 | 5.2 | 13.9 | 0.00 | 0.00 | 0.00 | 56 | 1010.5 |
| 20260505162415 | 56 | 30 | 10.4 | 14.8 | 0.00 | 0.00 | 0.00 | 55 | 1010.4 |
| 20260505161915 | 57 | 18 | 9.6 | 14.8 | 0.00 | 0.00 | 0.00 | 55 | 1010.4 |
| 20260505161415 | 57 | 5 | 9.6 | 16.5 | 0.00 | 0.00 | 0.00 | 55 | 1010.4 |
| 20260505160915 | 57 | 16 | 10.4 | 16.5 | 0.00 | 0.00 | 0.00 | 55 | 1010.5 |
| 20260505160415 | 57 | 38 | 7.0 | 15.6 | 0.00 | 0.00 | 0.00 | 55 | 1010.4 |
| 20260505152916 | 57 | 37 | 7.8 | 14.8 | 0.00 | 0.00 | 0.00 | 55 | 1010.4 |
| 20260505152415 | 57 | 24 | 9.6 | 13.0 | 0.00 | 0.00 | 0.00 | 55 | 1010.4 |
| 20260505151915 | 57 | 26 | 9.6 | 15.6 | 0.00 | 0.00 | 0.00 | 55 | 1010.4 |
| 20260505151415 | 57 | 21 | 10.4 | 15.6 | 0.00 | 0.00 | 0.00 | 55 | 1010.3 |
| 20260505150915 | 57 | 20 | 9.6 | 16.5 | 0.00 | 0.00 | 0.00 | 55 | 1010.5 |
| 20260505150415 | 57 | 353 | 8.7 | 16.5 | 0.00 | 0.00 | 0.00 | 55 | 1010.4 |
| 20260505140415 | 58 | 86 | 8.7 | 17.4 | 0.00 | 0.00 | 0.00 | 54 | 1010.7 |
| 20260505124414 | 57 | 24 | 11.3 | 17.4 | 0.00 | 0.00 | 0.00 | 54 | 1010.9 |
| 20260505123916 | 57 | 64 | 3.5 | 13.9 | 0.00 | 0.00 | 0.00 | 54 | 1011.0 |
| 20260505122904 | 57 | 49 | 8.7 | 13.9 | 0.00 | 0.00 | 0.00 | 54 | 1011.0 |
| 20260505122402 | 57 | 14 | 7.8 | 12.2 | 0.00 | 0.00 | 0.00 | 54 | 1011.1 |
| 20260505121901 | 56 | 18 | 9.6 | 14.8 | 0.00 | 0.00 | 0.00 | 53 | 1010.8 |
| 20260505120902 | 56 | 49 | 3.5 | 12.2 | 0.00 | 0.00 | 0.00 | 53 | 1011.1 |
| 20260505120402 | 56 | 16 | 7.0 | 13.0 | 0.00 | 0.00 | 0.00 | 53 | 1011.1 |
| 20260505115901 | 56 | 96 | 7.8 | 13.0 | 0.00 | 0.00 | 0.00 | 54 | 1011.2 |
| 20260505115401 | 56 | 47 | 7.8 | 13.0 | 0.00 | 0.00 | 0.00 | 54 | 1011.2 |
| 20260505113818 | 56 | 20 | 12.2 | 15.6 | 0.00 | 0.00 | 0.00 | 54 | 1011.1 |
| 20260505113318 | 56 | 95 | 10.4 | 15.6 | 0.00 | 0.00 | 0.00 | 54 | 1011.2 |
| 20260505112818 | 56 | 10 | 9.6 | 13.0 | 0.00 | 0.00 | 0.00 | 54 | 1011.2 |
| 20260505112316 | 56 | 30 | 10.4 | 11.3 | 0.00 | 0.00 | 0.00 | 52 | 1011.4 |
| 20260505111814 | 56 | 55 | 7.0 | 12.2 | 0.00 | 0.00 | 0.00 | 53 | 1011.4 |
| 20260505111315 | 56 | 47 | 8.7 | 13.9 | 0.00 | 0.00 | 0.00 | 52 | 1011.3 |
| 20260505110806 | 56 | 97 | 7.0 | 13.9 | 0.00 | 0.00 | 0.00 | 52 | 1011.4 |
| 20260505110302 | 56 | 10 | 7.8 | 13.0 | 0.00 | 0.00 | 0.00 | 53 | 1011.5 |
| 20260505102221 | 56 | 41 | 7.8 | 11.3 | 0.00 | 0.00 | 0.00 | 52 | 1011.8 |
| 20260505101722 | 56 | 23 | 8.7 | 13.0 | 0.00 | 0.00 | 0.00 | 52 | 1012.0 |
| 20260505100715 | 55 | 112 | 5.2 | 13.0 | 0.00 | 0.00 | 0.00 | 51 | 1011.7 |
| 20260505100209 | 55 | 10 | 7.8 | 13.0 | 0.00 | 0.00 | 0.00 | 51 | 1011.8 |
| 20260505095707 | 55 | 28 | 7.8 | 17.4 | 0.00 | 0.00 | 0.00 | 51 | 1011.8 |
| 20260505094704 | 55 | 10 | 11.3 | 14.8 | 0.00 | 0.00 | 0.00 | 50 | 1011.9 |
| 20260505094202 | 55 | 38 | 10.4 | 14.8 | 0.00 | 0.00 | 0.00 | 49 | 1011.9 |
| 20260505093701 | 55 | 58 | 7.8 | 13.9 | 0.00 | 0.00 | 0.00 | 48 | 1011.9 |
| 20260505093148 | 55 | 57 | 8.7 | 12.2 | 0.00 | 0.00 | 0.00 | 46 | 1012.0 |
| 20260505092630 | 55 | 11 | 7.0 | 15.6 | 0.00 | 0.00 | 0.00 | 42 | 1011.9 |
| 20260505091618 | 54 | 33 | 11.3 | 16.5 | 0.00 | 0.00 | 0.00 | 42 | 1011.8 |
| 20260505091115 | 54 | 10 | 13.0 | 16.5 | 0.00 | 0.00 | 0.00 | 41 | 1011.7 |
| 20260505090615 | 54 | 10 | 12.2 | 16.5 | 0.00 | 0.00 | 0.00 | 43 | 1011.8 |
| 20260505090104 | 54 | 10 | 11.3 | 16.5 | 0.00 | 0.00 | 0.00 | 40 | 1011.7 |
| 20260505085602 | 54 | 4 | 11.3 | 16.5 | 0.00 | 0.00 | 0.00 | 36 | 1011.7 |
| 20260505085103 | 54 | 17 | 7.8 | 14.8 | 0.00 | 0.00 | 0.00 | 31 | 1011.7 |
| 20260505084601 | 53 | 59 | 11.3 | 14.8 | 0.00 | 0.00 | 0.00 | 32 | 1011.8 |
| 20260505084102 | 53 | 16 | 8.7 | 18.2 | 0.00 | 0.00 | 0.00 | 28 | 1011.7 |
| 20260505083601 | 53 | 10 | 10.4 | 18.2 | 0.00 | 0.00 | 0.00 | 30 | 1011.7 |
| 20260505083101 | 53 | 33 | 11.3 | 20.9 | 0.00 | 0.00 | 0.00 | 26 | 1011.9 |
| 20260505082557 | 53 | 27 | 9.6 | 20.9 | 0.00 | 0.00 | 0.00 | 27 | 1012.0 |
| 20260505082030 | 53 | 10 | 10.4 | 16.5 | 0.00 | 0.00 | 0.00 | 24 | 1011.9 |
| 20260505081535 | 52 | 10 | 9.6 | 14.8 | 0.00 | 0.00 | 0.00 | 26 | 1011.8 |
| 20260505081020 | 53 | 7 | 10.4 | 14.8 | 0.00 | 0.00 | 0.00 | 23 | 1011.9 |
| 20260505080002 | 52 | 20 | 7.0 | 14.8 | 0.00 | 0.00 | 0.00 | 25 | 1012.0 |
| 20260505075001 | 52 | 10 | 7.8 | 13.0 | 0.00 | 0.00 | 0.00 | 21 | 1012.1 |
| 20260505074501 | 52 | 27 | 10.4 | 13.0 | 0.00 | 0.00 | 0.00 | 18 | 1012.2 |
| 20260505074002 | 52 | 18 | 7.8 | 16.5 | 0.00 | 0.00 | 0.00 | 22 | 1012.1 |
| 20260505073430 | 52 | 52 | 7.8 | 16.5 | 0.00 | 0.00 | 0.00 | 23 | 1012.3 |
| 20260505072927 | 52 | 89 | 7.0 | 11.3 | 0.00 | 0.00 | 0.00 | 22 | 1012.3 |
| 20260505072425 | 52 | 49 | 7.0 | 13.0 | 0.00 | 0.00 | 0.00 | 15 | 1012.3 |
| 20260505071922 | 51 | 14 | 8.7 | 13.0 | 0.00 | 0.00 | 0.00 | 15 | 1012.4 |
| 20260505071415 | 51 | 31 | 10.4 | 14.8 | 0.00 | 0.00 | 0.00 | 14 | 1012.3 |
| 20260505070915 | 51 | 17 | 8.7 | 14.8 | 0.00 | 0.00 | 0.00 | 13 | 1012.3 |
| 20260505070415 | 51 | 30 | 7.0 | 10.4 | 0.00 | 0.00 | 0.00 | 10 | 1012.3 |
| 20260505065916 | 52 | 18 | 7.0 | 10.4 | 0.00 | 0.00 | 0.00 | 3 | 1012.4 |
| 20260505065415 | 52 | 27 | 6.1 | 13.0 | 0.00 | 0.00 | 0.00 | 3 | 1012.4 |
| 20260505064915 | 52 | 28 | 7.8 | 13.9 | 0.00 | 0.00 | 0.00 | 1 | 1012.4 |
| 20260505064415 | 51 | 23 | 7.0 | 13.9 | 0.00 | 0.00 | 0.00 | 1 | 1012.6 |
| 20260505063414 | 51 | 10 | 5.2 | 9.6 | 0.00 | 0.00 | 0.00 | 1 | 1012.6 |
| 20260505062915 | 51 | 10 | 6.1 | 10.4 | 0.00 | 0.00 | 0.00 | 1 | 1012.6 |
| 20260505062414 | 51 | 37 | 7.8 | 11.3 | 0.00 | 0.00 | 0.00 | 1 | 1012.6 |
| 20260505061916 | 51 | 100 | 7.8 | 11.3 | 0.00 | 0.00 | 0.00 | 1 | 1012.6 |
| 20260505061413 | 51 | 24 | 6.1 | 9.6 | 0.00 | 0.00 | 0.00 | 1 | 1012.6 |
| 20260505060414 | 50 | 14 | 4.3 | 10.4 | 0.00 | 0.00 | 0.00 | 1 | 1012.7 |
| 20260505055414 | 50 | 38 | 5.2 | 9.6 | 0.00 | 0.00 | 0.00 | 1 | 1012.6 |
| 20260505053916 | 50 | 64 | 5.2 | 8.7 | 0.00 | 0.00 | 0.00 | 1 | 1012.5 |
| 20260505053414 | 50 | 18 | 4.3 | 9.6 | 0.00 | 0.00 | 0.00 | 1 | 1012.5 |
| 20260505052915 | 50 | 10 | 5.2 | 9.6 | 0.00 | 0.00 | 0.00 | 1 | 1012.5 |
| 20260505052414 | 50 | 21 | 5.2 | 6.1 | 0.00 | 0.00 | 0.00 | 1 | 1012.4 |
| 20260505051915 | 50 | 13 | 6.1 | 8.7 | 0.00 | 0.00 | 0.00 | 1 | 1012.5 |
| 20260505051414 | 50 | 24 | 5.2 | 9.6 | 0.00 | 0.00 | 0.00 | 1 | 1012.5 |
| 20260505050915 | 50 | 45 | 5.2 | 9.6 | 0.00 | 0.00 | 0.00 | 1 | 1012.5 |
| 20260505050414 | 50 | 90 | 4.3 | 8.7 | 0.00 | 0.00 | 0.00 | 1 | 1012.4 |